Basseterre, Saint Kitts and Nevis

12:38 AM AST on February 11, 2016 (GMT -0400)
Robert L Bradshaw International

Weather History for TKPK - February, 2014

Change the Weather History Date:

Wednesday, February 19, 2014

  Actual Average Record
Temperature  
Mean Temperature 78 °F -  
Max Temperature 84 °F 81 °F 86 °F (1998)
Min Temperature 72 °F 73 °F 69 °F (2002)
Cooling Degree Days 13    
Growing Degree Days 28 (Base 50)    
Moisture  
Dew Point 69 °F    
Average Humidity 71    
Maximum Humidity 88    
Minimum Humidity 55    
Precipitation  
Precipitation 0.00 in - - ()
Sea Level Pressure  
Sea Level Pressure 30.03 in    
Wind  
Wind Speed 14 mph ()    
Max Wind Speed 22 mph    
Max Gust Speed -    
Visibility 7.5 miles    
Events Rain    
Averages and records for this station are not official NWS values.
T = Trace of Precipitation, MM = Missing Value Source: Averaged Metar Reports

Daily Weather History Graph

Daily Weather History Graph

Search for Another Location

Airport or City:

Trip Planner

Search our weather history database for the weather conditions in past years. The results will help you decide how hot, cold, wet, or windy it might be!

Date:

Astronomy

Feb. 19, 2014 Rise Set
Actual Time 6:35 AM AST 6:14 PM AST
Civil Twilight 6:13 AM AST 6:36 PM AST
Nautical Twilight 5:47 AM AST 7:01 PM AST
Astronomical Twilight 5:22 AM AST 7:26 PM AST
Moon 10:14 PM AST (2/19) 9:22 AM AST (2/19)
Length of Visible Light 12h 23m
Length of Day
11h 38m
Waning Gibbous, 80% of the Moon is Illuminated
Feb 19
Waning Gibbous
Feb 22
Last Quarter
Mar 1
New
Mar 8
First Quarter
Mar 16
Full

Hourly Weather History & Observations

Time (AST) Temp. Heat Index Dew Point Humidity Pressure Visibility Wind Dir Wind Speed Gust Speed Precip Events Conditions
6:00 AM 75.2 °F - 64.4 °F 69% 30.01 in 6.2 mi ENE 16.1 mph - N/A   Partly Cloudy
7:00 AM 73.4 °F - 69.8 °F 88% 30.04 in 6.2 mi NE 12.7 mph - N/A   Partly Cloudy
8:00 AM 76 °F - 69 °F 72% 30.05 in 22 mi East 13.8 mph - -   Partly Cloudy
8:00 AM 75.2 °F - 68.0 °F 78% 30.04 in 6.2 mi East 13.8 mph - N/A   Scattered Clouds
9:00 AM 77.0 °F - 69.8 °F 78% 30.06 in 6.2 mi ENE 15.0 mph - N/A   Partly Cloudy
10:00 AM 82.4 °F 86.3 °F 69.8 °F 66% 30.06 in 6.2 mi ENE 17.3 mph - N/A   Scattered Clouds
11:00 AM 82 °F - 69 °F 55% 30.08 in 22 mi ENE 15.0 mph - -   Partly Cloudy
11:00 AM 82.4 °F 85.4 °F 68.0 °F 62% 30.06 in 6.2 mi ENE 15.0 mph - N/A   Partly Cloudy
12:00 PM 80.6 °F 83.2 °F 68.0 °F 65% 30.04 in 6.2 mi ENE 19.6 mph - N/A   Partly Cloudy
1:00 PM 82.4 °F 86.3 °F 69.8 °F 66% 30.01 in 6.2 mi East 19.6 mph - N/A   Mostly Cloudy
2:00 PM 80 °F - 68 °F 59% 30.01 in 22 mi East 15.0 mph - - Rain Light Rain Showers
2:00 PM 80.6 °F 83.2 °F 68.0 °F 65% 30.01 in 6.2 mi East 15.0 mph - N/A   Scattered Clouds
3:00 PM 80.6 °F 83.2 °F 68.0 °F 65% 29.98 in 6.2 mi East 21.9 mph - N/A   Scattered Clouds
4:00 PM 80.6 °F 83.9 °F 69.8 °F 70% 29.98 in 6.2 mi NE 17.3 mph - N/A   Scattered Clouds
5:00 PM 80 °F - 70 °F 65% 30.00 in 18 mi NE 16.1 mph - -   Mostly Cloudy
5:00 PM 78.8 °F - 69.8 °F 74% 29.98 in 6.2 mi NE 16.1 mph - N/A   Mostly Cloudy
6:00 PM 77.0 °F - 69.8 °F 78% 30.01 in 6.2 mi ENE 16.1 mph - N/A   Scattered Clouds
7:00 PM 75.2 °F - 69.8 °F 83% 30.01 in 6.2 mi East 13.8 mph - N/A   Partly Cloudy
8:00 PM 76 °F - 69 °F 75% 30.04 in 17 mi East 15.0 mph - -   Partly Cloudy
8:00 PM 75.2 °F - 69.8 °F 83% 30.04 in 6.2 mi East 15.0 mph - N/A   Partly Cloudy
9:00 PM 77.0 °F - 69.8 °F 78% 30.04 in 6.2 mi ENE 12.7 mph - N/A   Scattered Clouds